ATLAS 5 CENTAUR DEB, 53520

Orbit data source: Space-Track

ATLAS 5 CENTAUR DEB, 53520 is space debris in HEO originally from a launch on Wed, 17 Oct 2018 UTC launched from the Air Force Eastern Test Range (AFETR). Debris objects in space refer to the collection of defunct objects orbiting the Earth. Examples of debris include non-operational satellites, rocket bodies, and fragments generated from explosions, collisions, or faulty payload assembly.

Loading next visibility...
Identifier
53520, 2018-079HB
Orbit
HEO
Country
Flag of USUS
Related business
Flag of USUnited Launch Alliance/Lockheed Martin (US)
Manufacturer
ULA Decatur
Mission
Spacecraft
Bus & Motor
Unknown
Mass
Unknown
Launch date (UTC)
2018-10-17 (7 years ago)
Launch vehicle
Unknown
Launch site
Air Force Eastern Test Range (AFETR)
Object type
Payload
Rocket body
Debris
Shape & HBR
Unknown shape, 1.1 m
Radar Cross Section
Small (<0.1 m²)

Expand to show TLE details & history
Last TLE update: 1 day ago

TLE from 1 day ago
0 ATLAS 5 CENTAUR DEB
1 53520U 18079HB  26035.55910448 -.00000171  00000-0  00000-0 0  9992
2 53520  13.4222  46.9809 4692021 286.8495  27.9660  1.80122917 28149
Epoch: 2026-02-04T13:25Z
TLE epoch observation values (Epoch: 2026-02-04T13:25:06.627Z)
Latitude
0.00001°
Longitude
71.07047°
Altitude
13,203.152 km
Speed
5.171 km/s
True Right ascension
03h 08m 17s
True Declination
0° 00' 00"
Sunlit
Object was in daylight at epoch
Visualization orbit readout
Latitude
Unknown
Longitude
Unknown
Altitude
Unknown
Speed
Unknown
Apparent Right ascension
Unknown
Apparent Declination
Unknown
Sunlit
N/A
Visualization observer readout
Local Sidereal Time
21:11:28
Azimuth
Unknown
Elevation
Unknown
Doppler factor
Unknown
Orbital elements
Apogee altitude
35,546.472 km
Perigee altitude
8,768.516 km
Semi-major axis
28,535.631 km
Eccentricity
0.4692
Inclination
13.4222°
RAAN
46.9809°
Arg. of periapsis
286.8495°
True anomaly
72.95204°
Mean anomaly
27.966°
Eccentric anomaly
47.91861°
Mean motion
0.45026 °/min
Orbital period
799.54 mins
BSTAR
0
Loading maneuver chart data...
Computing Atmospheric mass density...

Documentation

Showing up to 5 results
|